Date,TemperatureHighF,TemperatureAvgF,TemperatureLowF,DewpointHighF,DewpointAvgF,DewpointLowF,HumidityHigh,HumidityAvg,HumidityLow,PressureMaxIn,PressureMinIn,WindSpeedMaxMPH,WindSpeedAvgMPH,GustSpeedMaxMPH,PrecipitationSumIn
2013-8-1,81.1,69.3,60.1,69.0,60.8,56.0,99,78,46,30.01,29.94,18,6,30,0.00
2013-8-2,82.3,72.0,61.0,72.0,66.4,58.0,96,83,66,29.96,29.88,19,6,23,0.02
2013-8-3,81.7,72.6,60.4,70.0,64.9,58.0,98,79,50,30.08,29.91,13,5,16,0.15
2013-8-4,82.3,68.8,54.9,62.0,57.9,54.0,95,72,43,30.16,30.07,8,2,10,0.00
2013-8-5,79.0,70.0,58.4,65.0,61.4,56.0,94,76,52,30.09,29.88,11,3,15,0.00
2013-8-6,84.8,73.8,66.8,73.0,68.9,65.0,96,85,64,29.90,29.83,9,3,12,0.00
2013-8-7,81.7,74.4,68.3,75.0,71.9,68.0,98,92,79,29.88,29.80,9,3,14,0.00
2013-8-8,79.0,72.3,66.2,72.0,68.5,61.0,99,88,78,29.94,29.86,12,5,14,0.00
2013-8-9,84.7,71.7,59.7,68.0,62.1,57.0,95,74,41,30.03,29.93,8,3,13,0.00
2013-8-10,84.4,73.4,61.7,69.0,63.9,59.0,97,75,45,30.09,30.03,11,4,15,0.00
2013-8-11,84.3,70.7,55.0,66.0,60.4,54.0,96,73,44,30.11,30.04,10,3,14,0.00
2013-8-12,84.5,73.1,62.0,72.0,66.4,60.0,96,81,53,30.05,29.85,9,3,12,0.00
2013-8-13,75.6,66.6,51.3,66.0,58.5,49.0,98,78,48,30.12,29.87,16,7,22,0.00
2013-8-14,72.4,58.2,46.3,55.0,50.3,45.0,95,77,48,30.21,30.12,9,2,12,0.00
2013-8-15,75.6,62.3,48.1,57.0,52.1,46.0,95,73,40,30.18,30.09,9,2,14,0.00
2013-8-16,78.3,67.8,57.3,59.0,56.0,53.0,92,69,41,30.15,30.10,9,3,13,0.00
2013-8-17,81.5,67.5,54.9,60.0,56.3,53.0,95,71,40,30.20,30.12,10,4,18,0.00
2013-8-18,85.7,70.6,56.0,67.0,60.7,54.0,94,73,45,30.17,30.07,7,2,11,0.00
2013-8-19,86.8,72.4,56.5,68.0,63.1,55.0,97,75,48,30.12,30.03,6,1,10,0.00
2013-8-20,87.3,74.4,61.2,71.0,65.4,60.0,96,76,52,30.11,30.03,7,2,11,0.00
2013-8-21,88.7,75.6,62.3,72.0,67.3,61.0,98,78,50,30.10,29.99,11,3,13,0.00
2013-8-22,83.8,73.8,67.8,71.0,67.8,66.0,94,82,59,30.09,29.98,18,5,31,0.00
2013-8-23,84.8,72.5,62.9,69.0,65.2,61.0,99,80,50,30.12,30.05,12,4,16,0.00
2013-8-24,87.6,73.7,59.8,66.0,62.1,58.0,94,70,40,30.22,30.12,9,3,13,0.00
2013-8-25,89.3,74.1,59.4,67.0,61.5,56.0,91,68,40,30.26,30.16,11,3,13,0.00
2013-8-26,90.9,76.8,62.5,75.0,67.9,60.0,95,76,50,30.19,30.02,11,4,15,0.00
2013-8-27,91.8,80.0,69.0,76.0,71.9,67.0,96,78,51,30.03,29.91,15,6,20,0.00
2013-8-28,93.6,80.9,71.7,78.0,71.8,67.0,93,75,56,29.98,29.88,14,8,21,0.00
2013-8-29,89.1,76.6,68.2,74.0,71.2,67.0,97,84,55,30.04,29.95,8,3,12,0.00
2013-8-30,96.0,78.8,62.8,79.0,70.4,61.0,98,78,48,29.95,29.77,24,5,27,0.15
2013-8-31,97.1,75.5,65.6,79.0,69.8,64.0,98,84,49,29.80,29.66,30,4,63,0.84